www.pogodaiklimat.ru

Погода и климат >> Архив погоды >> Канада >> Timmins


ПОГОДА в Timmins

  • Прогноз погоды в Timmins
  • Монитор погоды в Timmins
  • Климат города

АРХИВ ПОГОДЫ в Timmins

Время (UTC), дата Ветер
(напр.,м/с)
 
Видим.   Явления Облачность Т
(С)
Тd
(С)
f
(%)
Тe
(С)
Тes
(С)
Комфортность P
(гПа)
Po
(гПа)
Тmin
(С)
Tmax
(С)
R
(мм)
R24
(мм)
S
(см)
21 18.04 С 8 24 км 10/10 600 м
[]
+2.0 -5.0 60 -4 -4 1012.0 975.6
00 19.04 С 9 24 км позёмок {снег} 9/5 1000 м
[Sc As trans Cc]
0.0 -9.7 48 -7 -7 1013.1 976.5 -5.5 +2.1
03 19.04 С 7 24 км 5/5 1000 м
[]
-3.0 -8.6 65 -11 -11 1015.2 978.4
06 19.04 С 6 24 км позёмок 10/10 600 м
[Sc]
-4.2 -8.2 74 -12 -12 1016.0 979.2 -5.5 +2.1 231
09 19.04 СЗ 7 24 км 10/10 300 м
[]
-5.4 -9.5 73 -13 -13 1016.8 980.1
12 19.04 СЗ 8 24 км {снег} 10/10 300 м
[Sc]
-6.1 -9.9 74 -15 -15 1019.4 982.5 -6.2 +2.1
15 19.04 СЗ 8 16 км 10/10 300 м
[]
-5.8 -10.2 71 -15 -15 1022.0 984.9
18 19.04 С 7 24 км в посл. час снег 8/8 600 м
[Sc]
-2.2 -9.3 58 -9 -8 1022.7 985.7 -6.2 -2.0
21 19.04 С 8 24 км 3/3 1000 м
[]
+0.6 -10.1 45 -6 -5 1023.3 986.3
00 20.04 С 5 24 км ясно 0.0 -8.4 53 -5 -5 1025.2 988.1 -6.2 +1.5
03 20.04 С 4 24 км ясно -3.1 -8.8 65 -9 -9 1026.3 989.1
06 20.04 СЗ 2 24 км ясно -6.1 -9.2 79 -10 -10 1028.1 990.8 -6.2 +1.5 181
09 20.04 З 3 24 км ясно -9.8 -11.1 90 -15 -15 1029.1 991.7
12 20.04 СЗ 3 24 км 4/0
[Ci fib]
-6.7 -9.4 81 -12 -11 1030.6 993.3 -10.9 +1.5
15 20.04 СЗ 4 24 км ясно +1.8 -8.5 46 -2 +6 1031.2 994.1
18 20.04 СЗ 4 24 км 3/0
[Ac As Ci fib]
+6.0 -9.4 32 +3 +13 опасность
простуды
1030.3 993.3 -10.9 +6.2
21 20.04 С 5 24 км ясно +8.0 -11.3 24 +5 +9 1030.0 992.9
00 21.04 С 3 24 км 1/0
[Ci fib]
+6.3 -11.4 27 +4 +4 1030.0 993.0 -10.9 +8.5
03 21.04 С 2 24 км ясно -2.6 -8.4 64 -6 -6 1030.6 993.5
06 21.04 С 1 24 км ясно -4.8 -8.2 77 -5 -5 1031.0 994.0 -10.9 +8.5 20
09 21.04 ЮВ 1 24 км ясно -7.9 -10.2 84 -10 -10 1030.9 993.8
12 21.04 В 1 24 км ясно -4.1 -9.9 64 -6 -4 1031.3 994.3 -8.8 +8.5
15 21.04 С 1 24 км ясно +6.3 -10.5 29 +7 +21 опасность
простуды
1031.0 994.1
18 21.04 Ю 1 24 км ясно +10.1 -10.9 22 +10 +27 опасность
простуды
1029.5 992.7 -8.8 +10.1
21 21.04 С 1 24 км ясно +11.6 -9.9 21 +13 +22 1028.0 991.2
00 22.04 В 4 24 км ясно +8.1 -7.7 32 +6 +6 1028.3 991.5 -8.8 +12.3
03 22.04 С 1 24 км ясно -0.8 -9.1 53 -1 -1 1029.0 992.2
06 22.04 Ю 1 24 км ясно -4.6 -8.1 76 -7 -7 1029.2 992.4 -8.8 +12.3 21
09 22.04 Ю 2 24 км ясно -5.5 -8.9 77 -9 -9 1029.0 992.2
12 22.04 Ю 2 24 км ясно -1.6 -9.0 57 -5 -3 1029.8 993.0 -6.8 +12.3
15 22.04 ЮВ 2 24 км ясно +11.5 -8.2 24 +11 +23 опасность
простуды
1029.4 992.8
18 22.04 З 3 24 км 3/0
[Ci]
+14.4 -8.2 20 +14 +25 опасность
простуды
1027.8 991.2 -6.8 +14.8
21 22.04 З 5 24 км 6/0
[]
+15.0 -9.2 18 +14 +16 1026.4 989.9
00 23.04 Ю 2 24 км 5/0
[Ci sp]
+13.1 -11.3 17 +13 +13 1025.5 989.1 -6.8 +16.6
03 23.04 ЮЗ 2 24 км 6/0
[]
+2.2 -7.9 47 0 0 1025.8 989.4
06 23.04 Ю 3 24 км ясно +1.9 -9.7 42 -2 -2 1025.5 989.2 -6.8 +16.6
09 23.04 Ю 3 24 км 4/0
[]
+0.2 -9.2 49 -3 -3 1025.8 989.5
12 23.04 Ю 4 24 км 5/0
[Ci]
+2.9 -8.6 42 -1 0 1025.7 989.4 -0.9 +16.6
15 23.04 ЮЗ 5 24 км 4/0
[]
+13.2 -8.6 21 +12 +16 1023.8 987.6
18 23.04 ЮЗ 5 24 км 3/0
[Ci fib]
+15.9 -7.7 19 +15 +22 1021.5 985.4 -0.9 +16.2
21 23.04 ЮЗ 5 24 км 5/0
[]
+16.9 -6.8 19 +16 +19 1019.6 983.6
00 24.04 З 3 24 км 8/1 1500 м
[Sc Ci fib]
+14.2 -7.1 22 +14 +14 1019.4 983.4 -0.4 +17.2
03 24.04 ЮЗ 3 24 км 6/0
[]
+10.4 -6.5 30 +9 +9 1019.8 984.0
06 24.04 Ю 3 24 км 8/0
[Ci fib]
+6.0 -5.6 43 +4 +4 1019.3 983.5 -0.4 +17.2 20
09 24.04 ЮЗ 2 24 км 4/0
[]
+3.3 -5.9 51 +2 +2 1019.3 983.4
12 24.04 Ю 2 24 км 6/0
[Ci fib]
+3.3 -5.5 52 +1 +2 1019.9 983.9 +0.3 +17.2
15 24.04 ЮЗ 2 24 км 9/0
[]
+10.5 -3.2 38 +10 +16 1019.3 983.4
18 24.04 З 3 24 км 9/0
[Ac As Ci fib]
+14.7 -3.7 28 +14 +23 1016.8 981.0 +0.3 +15.3
21 24.04 С 4 24 км 9/0 2000 м
[]
+13.6 -1.2 36 +12 +15 1015.6 979.7
00 25.04 С 5 24 км 10/0
[Ac As]
+9.9 +0.7 53 +7 +7 1017.4 981.3 +0.3 +15.9
03 25.04 С 7 24 км 10/10 300 м
[]
+2.6 -0.7 79 -3 -3 1020.0 983.8
06 25.04 С 4 8000 м слабый снег {дождь} 10/10 100 м
[Sc]
+0.2 -0.5 95 -5 -5 1020.5 984.4 +0.2 +15.9 3
09 25.04 С 4 16 км 10/10 100 м
[]
-0.4 -1.4 93 -6 -6 1020.6 984.4
12 25.04 С 5 24 км в посл. час снег 9/8 200 м
[Sc Ac As]
-1.2 -3.1 87 -7 -7 1021.3 984.9 -1.3 +15.9
15 25.04 С 4 24 км 10/10 300 м
[]
-0.8 -4.1 78 -6 -6 1020.9 984.3
18 25.04 С 4 24 км 10/10 600 м
[Sc]
+0.9 -3.9 70 -4 -4 1018.9 982.3 -1.4 +0.9

 

Местоположение метеостанции Timmins (Канада): широта 48.57 долгота -81.36 высота над уровнем моря 295 м.

В архиве по умолчанию представлена погода в Timmins за последнюю неделю. Архивные данные за месяц целиком и за предыдущие месяцы, начиная с января 2011 года, Вы можете получить, выбрав интересующий диапазон дат из раскрывающегося списка и нажав кнопку "Ввод!".


*Определитесь, кто Вы:
робот инопланетянин человек

Внимание! Время в таблицах - всемирное. Для получения местного времени необходимо прибавить поправку, которая в Timmins равна -5 ч.

Смотрите также архив погоды в соседних городах и на ближайших метеорологических станциях:

Погода в Timmins Climate (Канада) (3 км)
Погода в Kirkland Lake (Канада) (111 км)
Погода в Kapuskasing (Канада) (122 км)
Погода в Kapuskasing (Канада) (122 км)
Погода в Kapuskasing Airport (Канада) (124 км)
Погода в Earlton (Канада) (148 км)
Погода в Earlton Climate (Канада) (151 км)
Погода в Chapleau A (Канада) (169 км)
Погода в Rouyn (Канада) (176 км)
Погода в Barrage Angliers (Канада) (195 км)

Пояснения к столбцам:

Ветер - указаны скорость ветра в м/с - средняя за 10 мин, порывы в срок и между сроками (в фигурных скобках) и направление, откуда дует ветер: С - северный, СВ - северо-восточный, В - восточный, ЮВ - юго-восточный, Ю - южный, ЮЗ - юго-западный, З - западный, СЗ - северо-западный.
Видимость - горизонтальная дальность видимости в метрах или километрах. При видимости от 1 до 10 км при отсутствии осадков обычно наблюдается дымка, при ухудшении видимости до 1 км и менее - туман. В сухую погоду видимость может ухудшаться дымом, пылью или мглою.
Явления - указаны атмосферные явления, наблюдавшиеся в срок или в последний час перед сроком; фигурными скобками обозначены явления, наблюдавшиеся между сроками (за 1-3 часа до срока); квадратными скобками обозначены град или гололедные отложения с указанием их диаметра в мм.
Облачность - указаны через наклонную черту общая и нижняя облачность в баллах и высота нижней границы облаков в метрах; квадратными скобками обозначены формы облаков: Ci - перистые, Cs - перисто-слоистые, Cc - перисто-кучевые, Ac - высококучевые, As - высокослоистые, Sc - слоисто-кучевые, Ns - слоисто-дождевые, Cu - кучевые, Cb - кучево-дождевые. Подробнее классификацию облаков см. в Атласе облаков (PDF).
T - Температура воздуха - температура, измеренная на высоте 2 м над землей.
Td - Температура точки росы - температура, при понижении до которой содержащийся в воздухе водяной пар достигнет насыщения.
f - Относительная влажность воздуха - влажноcть воздуха, измеренная на высоте 2 м над землей.
Te - Эффективная температура - температура, которую ощущает одетый по сезону человек в тени. Характеристика душности погоды. При расчете учитывается влияние влажности воздуха и скорости ветра на теплоощущения человека.
Tes - Эффективная температура на солнце - температура, которую ощущает человек, с поправкой на солнечный нагрев. Характеристика знойности погоды. Зависит от высоты солнца над горизонтом, облачности и скорости ветра. Ночью, в пасмурную погоду, а также при ветре 12 м/с и более поправка равна нулю.
P - Атмосферное давление - приведенное к уровню моря атмосферное давление.
Po - Атмосферное давление - измеренное на уровне метеостанции атмосферное давление.
Tmin - Минимальная температура - минимум температуры воздуха на высоте 2 м над землей.
Tmax - Максимальная температура - максимум температуры воздуха на высоте 2 м над землей.
R - Количество осадков - Количество выпавших осадков за период времени, мм. При наведении курсора мыши на число - период времени, за который выпало указанное количество осадков.
R24 - Количество осадков - Количество выпавших осадков за 24 часа, мм.
S - Снежный покров - Высота снежного покрова, см. При наведении курсора мыши на число - состояние снежного покрова и степень покрытия местности в баллах.